Total_Precipitation_Accumulation
0.10 0.12 0.18 0.23 0.32 0.44 0.48 0.56 0.62 0.72 0.85 0.95 1.09 1.06 1.01 1.03 1.06 1.02 1.00 0.98 1.05 1.05 0.97 0.92 0.93 0.94 0.90 0.83 0.79 0.78 0.76 0.72 0.65 0.69 0.73 0.67 0.54 0.46 0.41 0.38 0.34 0.29 0.26
0.10 0.12 0.18 0.23 0.30 0.43 0.49 0.56 0.65 0.75 0.82 0.89 0.97 1.05 1.02 1.04 1.10 1.06 1.04 1.01 0.99 1.03 1.06 0.98 0.91 0.86 0.87 0.88 0.83 0.81 0.80 0.80 0.74 0.71 0.76 0.77 0.73 0.57 0.41 0.36 0.36 0.34 0.31
0.13 0.14 0.22 0.28 0.32 0.42 0.50 0.56 0.66 0.75 0.81 0.96 1.06 1.14 1.24 1.24 1.26 1.25 1.14 1.05 1.00 0.97 1.00 1.01 0.96 0.90 0.84 0.85 0.83 0.79 0.77 0.77 0.73 0.64 0.75 0.83 0.71 0.56 0.46 0.36 0.31 0.32 0.33
0.14 0.15 0.20 0.29 0.33 0.39 0.50 0.59 0.69 0.76 0.80 0.99 1.14 1.11 1.18 1.18 1.11 1.07 1.10 1.07 1.02 0.98 0.95 0.95 0.95 0.97 0.91 0.81 0.78 0.79 0.78 0.80 0.80 0.68 0.60 0.61 0.61 0.63 0.53 0.44 0.39 0.36 0.35
0.13 0.13 0.14 0.20 0.29 0.36 0.47 0.58 0.72 0.82 0.84 0.92 1.11 1.15 1.09 1.05 1.05 1.09 1.08 1.11 1.11 1.05 0.96 0.92 0.91 0.91 0.90 0.83 0.76 0.78 0.80 0.81 0.81 0.76 0.66 0.58 0.50 0.50 0.59 0.49 0.42 0.46 0.43
0.12 0.12 0.11 0.13 0.25 0.37 0.47 0.55 0.68 0.81 0.87 0.87 0.99 1.15 1.10 1.05 1.04 1.08 1.12 1.11 1.14 1.12 1.02 0.91 0.87 0.83 0.81 0.80 0.74 0.68 0.69 0.73 0.73 0.70 0.68 0.68 0.65 0.54 0.55 0.53 0.41 0.41 0.41
0.14 0.14 0.12 0.13 0.20 0.32 0.43 0.53 0.63 0.72 0.80 0.83 0.87 0.97 1.09 1.06 0.98 0.93 0.99 1.07 1.14 1.10 1.01 0.94 0.86 0.80 0.77 0.76 0.75 0.71 0.64 0.64 0.69 0.68 0.63 0.60 0.56 0.52 0.56 0.62 0.53 0.46 0.42
0.10 0.11 0.13 0.15 0.18 0.23 0.30 0.43 0.54 0.67 0.79 0.84 0.83 0.88 0.98 1.09 1.01 0.93 0.91 0.95 1.01 0.97 0.89 0.89 0.85 0.78 0.74 0.75 0.77 0.76 0.69 0.65 0.66 0.64 0.62 0.62 0.56 0.57 0.64 0.72 0.78 0.73 0.53
0.09 0.10 0.12 0.15 0.17 0.22 0.25 0.36 0.45 0.59 0.77 0.89 0.88 0.88 0.92 1.00 1.02 0.93 0.90 0.91 0.92 0.92 0.90 0.88 0.87 0.83 0.82 0.81 0.81 0.80 0.74 0.70 0.67 0.67 0.66 0.68 0.64 0.63 0.65 0.69 0.80 1.01 0.88
0.11 0.11 0.12 0.15 0.17 0.20 0.23 0.31 0.39 0.47 0.60 0.79 0.92 0.92 0.89 0.89 0.96 0.98 0.95 0.91 0.90 0.90 0.90 0.93 0.93 0.88 0.84 0.87 0.89 0.84 0.77 0.77 0.74 0.74 0.75 0.71 0.68 0.70 0.73 0.77 0.77 0.83 0.94
0.11 0.11 0.13 0.15 0.18 0.21 0.26 0.32 0.39 0.45 0.51 0.61 0.77 0.89 0.90 0.93 0.97 1.01 0.97 0.96 0.93 0.92 0.88 0.88 0.94 0.96 0.90 0.84 0.90 0.91 0.86 0.85 0.80 0.77 0.79 0.75 0.72 0.80 0.83 0.88 0.87 0.82 0.85
0.09 0.09 0.10 0.16 0.19 0.24 0.29 0.34 0.42 0.44 0.47 0.55 0.65 0.77 0.87 0.92 0.97 0.95 1.00 1.05 1.03 0.95 0.87 0.84 0.90 0.96 0.95 0.88 0.86 0.88 0.87 0.89 0.86 0.82 0.84 0.83 0.80 0.83 0.87 0.95 0.95 0.87 0.81
0.08 0.09 0.11 0.16 0.21 0.25 0.28 0.35 0.43 0.43 0.45 0.55 0.64 0.73 0.84 0.87 0.88 0.85 0.91 1.07 1.18 1.13 0.97 0.89 0.90 0.99 1.04 0.97 0.88 0.89 0.88 0.85 0.82 0.80 0.85 0.88 0.89 0.85 0.85 0.95 1.01 0.94 0.89
0.08 0.10 0.13 0.16 0.19 0.22 0.26 0.32 0.40 0.46 0.49 0.52 0.61 0.69 0.77 0.79 0.78 0.78 0.80 0.94 1.11 1.20 1.11 0.98 0.92 0.99 1.11 1.14 1.11 1.10 1.01 0.91 0.81 0.73 0.74 0.84 0.97 0.98 1.00 1.04 1.03 1.05 1.09
0.08 0.09 0.12 0.15 0.20 0.24 0.27 0.30 0.36 0.46 0.53 0.52 0.59 0.62 0.68 0.76 0.76 0.74 0.78 0.88 1.01 1.08 1.10 1.07 1.00 1.00 1.21 1.44 1.59 1.48 1.18 0.98 0.86 0.72 0.67 0.77 1.00 1.18 1.35 1.41 1.30 1.30 1.42
0.09 0.10 0.12 0.16 0.22 0.27 0.29 0.33 0.37 0.42 0.50 0.51 0.56 0.58 0.66 0.76 0.78 0.73 0.76 0.87 0.97 1.03 1.04 1.03 1.01 0.99 1.18 1.54 1.75 1.43 1.08 0.94 0.87 0.80 0.70 0.75 0.99 1.13 1.25 1.38 1.36 1.40 1.57
0.12 0.11 0.14 0.19 0.23 0.28 0.29 0.34 0.36 0.40 0.47 0.49 0.51 0.57 0.65 0.70 0.78 0.76 0.78 0.87 0.96 1.00 1.00 0.96 0.94 0.91 0.98 1.33 1.56 1.32 1.01 0.90 0.86 0.81 0.76 0.77 0.87 1.00 1.03 1.11 1.14 1.17 1.35
0.17 0.16 0.18 0.21 0.22 0.26 0.25 0.29 0.33 0.42 0.49 0.50 0.47 0.53 0.61 0.64 0.75 0.80 0.81 0.90 0.98 0.95 0.95 0.94 0.90 0.86 0.90 1.19 1.45 1.28 1.01 0.93 0.87 0.86 0.79 0.73 0.77 0.89 1.04 1.12 1.08 1.01 1.09
0.20 0.20 0.20 0.21 0.21 0.24 0.24 0.24 0.28 0.39 0.48 0.52 0.46 0.48 0.57 0.63 0.71 0.78 0.84 0.90 0.98 0.92 0.90 0.88 0.89 0.84 0.82 1.07 1.45 1.34 1.04 0.96 0.90 0.89 0.83 0.74 0.70 0.87 1.03 1.01 0.98 0.91 0.96
0.18 0.20 0.19 0.19 0.21 0.24 0.25 0.23 0.25 0.33 0.44 0.51 0.43 0.45 0.52 0.55 0.63 0.71 0.81 0.88 0.88 0.86 0.87 0.83 0.84 0.82 0.76 0.91 1.34 1.47 1.09 0.99 0.91 0.91 0.86 0.92 0.89 0.97 0.99 0.91 0.96 1.04 0.95
0.18 0.17 0.18 0.19 0.22 0.25 0.24 0.25 0.27 0.29 0.38 0.50 0.46 0.48 0.51 0.54 0.61 0.69 0.73 0.79 0.83 0.82 0.85 0.83 0.81 0.80 0.78 0.83 1.10 1.44 1.20 1.03 0.92 0.93 0.92 0.88 1.01 1.02 0.99 0.97 0.95 1.11 1.04
0.18 0.18 0.18 0.18 0.19 0.22 0.25 0.27 0.30 0.31 0.37 0.46 0.48 0.52 0.57 0.59 0.63 0.67 0.66 0.68 0.78 0.82 0.83 0.87 0.90 0.87 0.83 0.85 1.05 1.26 1.22 1.11 0.93 0.90 0.84 0.82 0.96 1.01 1.05 1.01 1.04 1.10 1.09
0.20 0.20 0.19 0.18 0.18 0.20 0.25 0.31 0.35 0.35 0.40 0.45 0.47 0.53 0.60 0.63 0.65 0.63 0.64 0.67 0.74 0.81 0.84 0.86 0.88 0.91 0.87 0.90 1.08 1.08 1.11 1.11 1.00 0.99 1.02 0.98 1.05 1.09 1.02 0.98 1.01 0.99 0.94
0.21 0.22 0.22 0.20 0.20 0.20 0.23 0.32 0.38 0.37 0.41 0.45 0.46 0.52 0.56 0.63 0.66 0.62 0.59 0.62 0.69 0.80 0.81 0.82 0.81 0.81 0.83 0.96 1.09 1.00 0.98 1.05 1.10 1.13 1.11 1.12 1.14 1.11 1.06 0.99 0.90 0.81 0.82
0.23 0.22 0.24 0.22 0.21 0.22 0.25 0.33 0.37 0.38 0.42 0.42 0.42 0.46 0.48 0.59 0.69 0.68 0.63 0.61 0.62 0.76 0.84 0.79 0.78 0.82 0.92 1.06 1.15 1.04 1.02 1.07 1.14 1.22 1.26 1.21 1.17 1.17 1.06 0.92 0.80 0.75 0.78
0.25 0.23 0.24 0.23 0.24 0.26 0.30 0.35 0.38 0.38 0.39 0.40 0.40 0.42 0.46 0.54 0.64 0.67 0.69 0.75 0.73 0.74 0.73 0.72 0.76 0.76 0.91 1.02 1.01 1.02 1.04 1.12 1.20 1.24 1.24 1.09 0.95 0.92 0.87 0.81 0.75 0.71 0.69